Tracking 35237 objects as of 5-Sep-2026
HD Live streaming from Space Station
objects crossing your sky now

STARLINK-31338

Track STARLINK-31338 now!
10-day predictions
STARLINK-31338 is classified as:


NORAD ID: 59156
Int'l Code: 2024-044E
Launch date: March 4, 2024
Source: United States (US)
Launch site: AIR FORCE EASTERN TEST RANGE (AFETR)
Your satellite tracking list
Your tracking list is empty




NASA's NSSDC Master Catalog

Two Line Element Set (TLE):
1 59156U 24044E   26247.85206366 -.00008136  00000-0 -28616-3 0  9993
2 59156  43.0023 178.8760 0001176 283.8172  76.2549 15.27611981140923
Source of the keplerian elements: AFSPC